sat.trackr.live / text

‹ back to catalog

NUSANTARA TIGA (SATRIA)

NORAD 57045 · 2023-086A

PAYLOAD ACTIVE UNKNOWN

§ Identity

Operator
Country
INDO
Launch date
2023-06-18
Launch site
AFETR
Launch vehicle
Mass (kg)
RCS (m²)

Purposes: comms

External: N2YO · Heavens-Above · Gunter

§ Orbital elements

Epoch: 2026-05-24T18:10:13.166976Z

Period
1,436.14 min
Inclination
0.0383°
Eccentricity
0.0004024
Mean motion
1.00268796 rev/d
Perigee alt
35,770.5 km
Apogee alt
35,804.4 km
Semi-major
42,165.6 km
B*
0.0000e+0
RAAN
333.9910°
Arg perigee
11.0302°
Mean anomaly
315.8823°
Rev number
952

§ Raw data

NUSANTARA TIGA (SATRIA)1 57045U 23086A   26144.75709684 -.00000239  00000+0  00000+0 0  99962 57045   0.0383 333.9910 0004024  11.0302 315.8823  1.00268796  9527

JSON: /api/v1/satellites/57045 · /tle

For live sub-satellite position, see the globe view (requires WebGL).

§ Visibility from observer

Set your observer location to see the next 7 days of passes ≥ 10°. The values pass through the URL so the page stays shareable.

No JS? Fill the form by hand. The geolocation button needs JavaScript.